Location: Maiden_LMO
(35.5760°N, 81.2120°W)
Time: 07:06:00
(UTC-05:00)

ADEOS II - Visible Passes

Search period start: 28 November 2014 00:00
Search period end: 08 December 2014 00:00
Orbit: 801 x 803 km, 98.3° (Epoch: 27 November)

Date Brightness Start Highest point End Pass type
(mag) Time Alt. Az. Time Alt. Az. Time Alt. Az.
28 Nov 2.4 06:11:28 10° NNE 06:16:44 74° ESE 06:21:58 10° S visible
29 Nov 3.5 05:45:42 10° NNE 05:50:38 40° E 05:55:32 10° SSE visible
29 Nov 4.9 18:43:32 10° SW 18:47:09 19° W 18:50:47 10° NW visible
30 Nov 4.6 05:20:22 10° NE 05:24:26 23° E 05:28:29 10° SE visible
30 Nov 4.0 18:16:12 10° SSW 18:20:55 34° W 18:25:40 10° NNW visible
01 Dec 5.3 04:56:10 10° ENE 04:58:08 12° E 05:00:07 10° ESE visible
01 Dec 2.1 06:33:05 10° N 06:38:19 68° WNW 06:43:30 10° SSW visible
01 Dec 2.7 17:49:36 10° S 17:54:47 61° W 18:00:00 10° NNW visible
02 Dec 2.5 06:07:02 10° NNE 06:12:17 68° ESE 06:17:30 10° S visible
02 Dec 5.4 19:07:49 10° WSW 19:08:58 11° W 19:10:08 10° WNW visible
03 Dec 3.7 05:41:19 10° NNE 05:46:10 37° E 05:50:59 10° SSE visible
03 Dec 4.8 18:38:49 10° SW 18:42:40 21° W 18:46:31 10° NW visible
04 Dec 4.7 05:16:04 10° NE 05:19:57 21° E 05:23:48 10° SE visible
04 Dec 3.8 18:11:38 10° SSW 18:16:27 37° W 18:21:17 10° NNW visible
05 Dec 5.3 04:52:22 10° ENE 04:53:38 11° E 04:54:54 10° ESE visible
05 Dec 2.0 06:28:37 10° N 06:33:52 74° WNW 06:39:05 10° SSW visible
05 Dec 2.6 17:45:07 10° S 17:50:19 67° WSW 17:55:34 10° NNW visible
06 Dec 2.6 06:02:36 10° NNE 06:07:49 62° E 06:13:00 10° S visible
06 Dec 5.3 19:02:33 10° WSW 19:04:28 12° W 19:06:23 10° WNW visible
07 Dec 3.8 05:36:56 10° NNE 05:41:41 34° E 05:46:24 10° SSE visible
07 Dec 4.7 18:34:08 10° SW 18:38:10 22° W 18:42:13 10° NW visible
